Home   Weather   Owensboro   Past weeks

Flag for USA Past Weather in Owensboro, Kentucky, USA — Yesterday and Last 2 Weeks

Now
33 °F

Overcast.


Feels Like: 20 °F
Forecast: 30 / 47 °F
Wind: 25 mph from Northwest

Location: Owensboro / Daviess

Current Time: Feb 25, 2017 at 8:01:30 am

Latest Report: Feb 25, 2017 at 6:56 am


Visibility: 10 mi

Pressure: 29.98 "Hg

Humidity: 58%

Dew Point: 20 °F

Location of OwensboroLocation

Past Weather in Owensboro — Graph

°F

Owensboro Temperature Yesterday

Maximum temperature yesterday: 79 °F (at 1:56 pm)
Minimum temperature yesterday: 47 °F (at 11:56 pm)
Average temperature yesterday: 65 °F

High & Low Weather Summary for the Past Weeks

 TemperatureHumidityPressure
High79 °F (Feb 24, 1:56 pm)100% (Feb 19, 12:56 am)30.45 "Hg (Feb 19, 12:56 am)
Low26 °F (Feb 10, 6:56 am)29% (Feb 16, 2:56 pm)29.55 "Hg (Feb 24, 1:56 pm)
Average52 °F70%29.99 "Hg
* Reported Feb 10 5:56 am — Feb 25 5:56 am, Owensboro, Weather by CustomWeather, © 2017

Note: Actual official high and low records may vary slightly from our data, if they occured in-between our weather recording intervals... More about our weather records

Advertising

Owensboro Weather History for the Previous 24 Hours

Scroll right to see more
 ConditionsComfort  
Time TempWeatherWind HumidityBarometerVisibility
5:56 am
Sat, Feb 25
35 °FOvercast.16 mph61%29.95 "Hg10 mi
4:56 am35 °FOvercast.21 mph61%29.93 "Hg10 mi
3:56 am38 °FMostly cloudy.20 mph68%29.84 "Hg10 mi
2:56 am42 °FOvercast.21 mph68%29.80 "Hg10 mi
1:56 am44 °FPassing clouds.16 mph60%29.78 "Hg10 mi
12:56 am45 °FOvercast.12 mph63%29.77 "Hg10 mi
11:56 pm
Fri, Feb 24
47 °FPassing clouds.10 mph69%29.75 "Hg10 mi
11:15 pm50 °FMostly cloudy.20 mph71%29.73 "Hg10 mi
11:06 pm50 °FMostly cloudy.22 mph76%29.72 "Hg10 mi
9:56 pm53 °FMostly cloudy.5 mph83%29.71 "Hg10 mi
8:56 pm54 °FThundershowers. Overcast.10 mph83%29.71 "Hg7 mi
8:00 pm57 °FPartly cloudy.20 mph82%29.66 "Hg10 mi
6:56 pm62 °FLight rain. Overcast.15 mph80%29.64 "Hg10 mi
5:56 pm66 °FPartly cloudy.15 mph68%29.61 "Hg10 mi
4:56 pm69 °FClear.24 mph61%29.58 "Hg10 mi
4:29 pm72 °FMild.23 mph50%29.58 "Hg10 mi
4:18 pm73 °FThunderstorms. Cloudy.20 mph47%29.57 "HgN/A
3:56 pm74 °FPartly sunny.16 mph46%29.56 "Hg10 mi
2:56 pm76 °FThundershowers. Partly sunny.20 mph40%29.56 "Hg10 mi
1:56 pm79 °FSunny.23 mph39%29.55 "Hg10 mi
12:56 pm78 °FPartly sunny.26 mph39%29.57 "Hg10 mi
11:56 am77 °FSunny.26 mph44%29.60 "Hg10 mi
10:56 am74 °FSunny.22 mph53%29.63 "Hg10 mi
9:56 am71 °FSunny.24 mph61%29.64 "Hg10 mi
8:56 am69 °FSunny.17 mph68%29.65 "Hg10 mi
Weather by CustomWeather, © 2017

See weather overviewHow to use our weather pages